Погода в Лимане

Погода в Лимане : погода сейчас, прогноз погоды и архив. Всё, что Вы хотите узнать о погоде в Лимане!

Хотите узнать прогноз погоды в Лимане? Тогда Вам сюда: Погода в Лимане

Поиск расширенной информации на нашем сайте:

Полезная информация: аренда звукового оборудования цены
Мануальный терапевт - прием остеопата цена. Онлайн запись на прием остеопата.

Другие новости

Новости СМИ2

Главная страница сайта

Новости сайта

02.10.2013

Напоминаем, что на нашем новом сайте вы можете получить высокодетализированные прогнозы погоды по пунктам России, СНГ и мира (включающие важные для авиации метеовеличины, такие как направление и скорость ветра, видимость, явления погоды, количество и форма облачности, нижняя и верхняя граница облачности), а также ознакомиться с разнообразными материалами по авиационной метеорологии и подборкой полезных ссылок на эту тему.

Сайт Метеоцентр.Азия посвящён разработке технологий оптимизации авиаметеорологического обслуживания, включая проектирование и перспективное создание нескольких автоматизированных авиаметеорологических систем:
- система выпуска высокодетальных прогностических карт явлений погоды для нижнего воздушного пространства по России и ближнему зарубежью;
- система верификации прогнозов TAF (выпускаемых синоптиками официальных АМСГ РФ и ближнего зарубежья) и AUTOTAF (выпускаемых сайтом Метеоцентр.Азия) - выявление ошибок, онлайн-сопоставление с фактической погодой METAR, автоматическое внесение коррективов в прогнозы при резком отклонении фактической погоды от прогноза, подсчёт оправдываемости прогнозов по элементам и в целом;
- система обработки, анализа и отображения авиаметеорологической информации для применения провайдерами метеорологической информации.

Рекомендуем: У нас король кордицепс цена ниже, чем в Китае!

Погода в Лимане - сегодня

Время (UTC), дата Ветер
(°,м/с) 
Видим.   Явления Облачность Т
(°С)
Тd
(°С)
f(%) Тe
(°С)
Pmin
(гПа)
dP
(гПа)
Po
(мм)
O2
(г/м3)
Тmin Tmax R s Состояние
почвы
09 18.01.17 010 (С) 20000 м    10/0 средняя 
[Ac As]
-3.3 -7.6 72 -4  1031.7  -0.2  775  317           
12 18.01.17 010 (С) 20000 м    9/6 600 м средняя 
[Sc|Ac trans]
-2.9 -8.1 67 -4  1031.4  -0.3  775  317           
15 18.01.17 360 (С) 20000 м    10/0 средняя 
[Ac As]
-4 -8.2 73 -5  1032.2  0.8  776  318    -2.1       
18 18.01.17 010 (С) 20000 м    10/0 средняя 
[Ac As]
-4.8 -8.9 73 -6  1033  0.8  776  319           
21 18.01.17 020 (С) 20000 м    10/0 верхняя 
[Cs]
-6 -9.5 76 -7  1032.5  -0.5  776  321           
00 19.01.17 020 (С) 20000 м    10/0 средняя 
[Ac As]
-7.1 -10.3 78 -9  1032.6  0.2  776  322           
03 19.01.17 350 (С) 20000 м    10/0 средняя 
[As trans]
-7.7 -9.8 85 -10  1033.1  0.4  776  323  -7.7         
06 19.01.17 350 (С) 20000 м    10/1 300 м средняя, верхняя 
[St|Ac trans|Cs]
-7.1 -9.4 84 -10  1034.4  1.4  777  323  -8         
09 19.01.17 010 (С) 20000 м    10/1 600 м средняя 
[Sc|As trans]
-5.4 -9.6 72 -7  1033.7  -0.8  777  320           
12 19.01.17 350 (С) 20000 м    10/3 600 м средняя, верхняя 
[Sc|Ac trans|Cs]
-4.1 -9.1 68 -6  1033.3  -0.3  777  319           
15 19.01.17 340 (С) 20000 м    4/0 средняя 
[Ac trans]
-7.7 -10 84 -7  1034.2  0.9  777  323    -3.8       
18 19.01.17 320 (СЗ) 4000 м  дымка  4/0 верхняя 
[Ci fib]
-9.7 -10.9 91 -10  1034.4  0.2  777  326           
21 19.01.17 340 (С) 4000 м  дымка  ясно 
-11.2 -12.4 91 -11  1034  -0.4  777  328           
00 20.01.17 320 (СЗ) 4000 м  дымка  ясно 
-12 -13 92 -12  1033.3  -0.7  777  329           
03 20.01.17 тихо ()   4000 м  дымка  ясно 
-13.1 -14.3 91 -13  1032.6  -0.7  776  330  -13.1         
06 20.01.17 тихо ()   20000 м    ясно 
-9.9 -11.2 90 -10  1032.6  776  326  -13.3         
09 20.01.17 190 (Ю) 20000 м    4/4 600 м 
[Sc]
-5.3 -8.9 76 -7  1030.6  -2.1  774  319           
12 20.01.17 220 (ЮЗ) 20000 м    ясно 
-1.8 -8.6 60 -3  1027.9  -2.7  772  314           
15 20.01.17 220 (ЮЗ) 20000 м    ясно 
-5.8 -9.2 77 -7  1026.8  -1.1  772  319    -1.8       
18 20.01.17 230 (ЮЗ) 20000 м    10/10 600 м 
[Sc]
-5.9 -7.3 90 -8  1025.9  -0.9  771  318           
21 20.01.17 230 (ЮЗ) 20000 м    10/10 600 м 
[Sc]
-4 -5.5 89 -7  1024.3  -1.6  770  315           
00 21.01.17 250 (З) 20000 м    10/10 600 м 
[Sc]
-3.7 -6.3 82 -7  1023.4  -0.9  769  315           
03 21.01.17 240 (ЮЗ) 10 км  слаб. снег  10/10 300 м 
[Frnb|Ns]
-4.3 -6.7 83 -7  1022.2  -1.2  768  315  -7.2    0.0     
06 21.01.17 240 (ЮЗ) 4000 м  дымка{снег}  10/10 300 м 
[Frnb|Ns]
-4.4 -6 89 -7  1022.7  0.5  769  315           
09 21.01.17 250 (З) 4000 м  в посл. час снег  10/10 300 м 
[Frnb|Ns]
-3.2 -4.4 91 -5  1021.5  -1.2  768  314           
Время (UTC), дата Ветер
(°,м/с) 
Видим.   Явления Облачность Т
(°С)
Тd
(°С)
f(%) Тe
(°С)
Pmin
(гПа)
dP
(гПа)
Po
(мм)
O2
(г/м3)
Тmin Tmax R s Состояние
почвы

Для получения пояснительной информации подведите курсор к названию столбца.

ПОГОДА в Лимане - архив

Всё, что Вы хотите узнать о погоде в Лимане - удобно и подробно!

Выберите нужную дату (начиная с 1 января 2015* года) и нажмите кнопку "Найти".
Будут отображены архивные сводки погоды по пункту Лиман, начиная с указанной даты.


Отображать данные в формате CSV (для использования в таблицах Excel)


Внимание! Наш архив погоды предназначен исключительно для личного некоммерческого использования в познавательных целях. Если Вам необходимы официальные справки о состоянии погоды (для производственных, юридических, коммерческих и т.п. целей), обращайтесь в органы Росгидромета.

*Примечание: данная дата относится к архиву по метеостанциям СССР (Россия, СНГ, Балтия).
Архив по метеостанциям Зарубежной Европы и Азии (кроме Китая) хранится 10 дней, по другим регионам земного шара (Китай, Африка, Америка, Австралия, Океания) - 1 день.

Лиман - район местоположения метеостанции


Название, широта, долгота, высота метеостанции:
Лиман 45.8°ш. 47.2°д. -18 м над ур. моря [Российская Федерация]

Дополнительная информация

В oтличие oт бoльшинства пoгoдных сайтoв мы публикуем пoдрoбную метеoинфoрмацию в детальнoм прoфессиoнальнoм фoрмате.

Характеристики температуры и влажнoсти вoздуха измеряются на высoте 2 м в тени вдали oт зданий и деревьев.
Скoрoсть ветра измеряется на высoте 10 м (на урoвне рoста челoвека скoрoсть ветра ниже в 1.5-2 раза). Если метеoстанция нахoдится в гoрoде или в лесу, тo скoрoсть ветра занижена на 2-4 м/с пo сравнению с oткрытым местoм. Скoрoсть ветра над акватoриями крупных рек и oзёр, а также на вершинах хoлмoв на 2-5 м/с выше, чем в oбычных услoвиях.
Атмoсфернoе давление в разных тoчках местнoсти мoжет значительнo oтличаться oт давления на метеoстанции, в зависимoсти oт услoвий рельефа (при пoдъёме на 10 м давление пoнижается примернo на 1 мм рт.ст.).